Terminal Aerodrome Forecast
Issued by NWS Brownsville, TX

Home | Current Version | Previous Version | Text Only | Print | Product List | Glossary On
Versions: 1 2 3 4 5 6 7 8 9 10 11 12 13 14
053
FTUS44 KBRO 212320
TAFBRO
TAF
KBRO 212320Z 2200/2224 12013KT P6SM SKC
     FM220100 13007KT P6SM SCT030
     FM220700 19005KT P6SM SCT030
      TEMPO 2210/2214 1SM MIFG SCT010
     FM221800 29008KT P6SM SCT250
     FM222000 36011KT P6SM SCT250=

USA.gov is the U.S. government's official web portal to all federal, state and local government web resources and services.